This is the latest recevied weather packets stored in our database for station/object MM0ZFG-5. If no packets are shown the sender has not sent any weather packets the latest 10 day(s).
| Time | Temp. | Humidity | Pressure | Rain* | Wind** | Luminosity | Snow |
|---|---|---|---|---|---|---|---|
| 1778128563 | 6.67° C | 77% | 1008.7 hPa | 0 mm | - | - | - |
| 1778124423 | 6.67° C | 74% | 1008.8 hPa | 0 mm | - | - | - |
| 1778123906 | 6.67° C | 74% | 1008.8 hPa | 0 mm | - | - | - |
| 1778123345 | 6.67° C | 73% | 1008.8 hPa | 0 mm | - | - | - |
| 1778122803 | 6.67° C | 73% | 1009 hPa | 0 mm | - | - | - |
| 1778122465 | 6.67° C | 73% | 1008.8 hPa | 0 mm | - | - | - |
| 1778120825 | 7.22° C | 73% | 1009.2 hPa | 0 mm | - | - | - |
| 1778119745 | 7.22° C | 73% | 1009.1 hPa | 0 mm | - | - | - |
| 1778116684 | 7.22° C | 73% | 1009.2 hPa | 0 mm | - | - | - |
| 1778110024 | 7.78° C | 75% | 1009.6 hPa | 0 mm | - | - | - |
| 1778109485 | 7.78° C | 74% | 1009.5 hPa | 0 mm | - | - | - |
| 1778106964 | 8.33° C | 70% | 1009.7 hPa | 0 mm | - | - | - |
| 1778105884 | 8.33° C | 70% | 1009.6 hPa | 0 mm | - | - | - |
| 1778104804 | 8.33° C | 69% | 1009.8 hPa | 0 mm | - | - | - |
| 1778101205 | 8.33° C | 67% | 1009.8 hPa | 0 mm | - | - | - |
| 1778098685 | 9.44° C | 65% | 1009.8 hPa | 0 mm | - | - | - |
| 1778098144 | 9.44° C | 65% | 1009.9 hPa | 0 mm | - | - | - |
| 1778096165 | 9.44° C | 64% | 1009.8 hPa | 0 mm | - | - | - |
| 1778092564 | 10.56° C | 63% | 1010.1 hPa | 0 mm | - | - | - |
| 1778091486 | 11.11° C | 62% | 1010.1 hPa | 0 mm | - | - | - |
| 1778090406 | 11.67° C | 60% | 1009.8 hPa | 0 mm | - | - | - |
| 1778086805 | 12.22° C | 58% | 1010.3 hPa | 0 mm | - | - | - |
| 1778086443 | 12.22° C | 58% | 1010.3 hPa | 0 mm | - | - | - |
| 1778084284 | 12.78° C | 53% | 1010.3 hPa | 0 mm | - | - | - |
| 1778082844 | 13.33° C | 51% | 1010.6 hPa | 0 mm | - | - | - |
* Rain latest hour (hover to see other rain measurements)
** Current wind speed in m/s (hover to see current wind gust speed)